Stations météo

réclame
Mon MeteoGroup
Ronneby, Suède (2664): Température de l'air & dewpoint: 18.02.2018 13:00:00 - 24.02.2018 13:00:00 (CET)Ronneby, Suède (2664): Vitesse du vent & gusts: 18.02.2018 13:00:00 - 24.02.2018 13:00:00 (CET)Ronneby, Suède (2664): Direction du vent: 18.02.2018 13:00:00 - 24.02.2018 13:00:00 (CET)Ronneby, Suède (2664): reduced air pressure: 18.02.2018 13:00:00 - 24.02.2018 13:00:00 (CET)Ronneby, Suède (2664): visibility: 18.02.2018 13:00:00 - 24.02.2018 13:00:00 (CET)Ronneby, Suède (2664): Quantités de précipitations: 18.02.2018 13:00:00 - 24.02.2018 13:00:00 (CET)
Date & Time tt [°C] td [°C] ff [km/h] ff [knt] fx [km/h] fx [knt] dd ppp [hPa] vv [km] rr [mm]
24.02.2018 13:00:00 -3,0 -7,7 21 11 32 18 NE 1036,5 10 -
24.02.2018 12:00:00 -2,7 -7,2 22 12 32 18 NE 1036,6 10 0,0
24.02.2018 11:00:00 -3,3 -6,8 18 10 32 18 NE 1036,3 10 0,0
24.02.2018 10:00:00 -4,4 -6,8 18 10 25 14 NNE 1036,3 10 0,0
24.02.2018 09:00:00 -5,8 -7,6 18 10 25 14 N 1036,0 10 0,0
24.02.2018 08:00:00 -7,3 -8,7 15 8 22 12 N 1035,7 10 0,0
24.02.2018 07:00:00 -7,8 -9,0 11 6 18 10 N 1035,3 10 0,0
24.02.2018 06:00:00 -7,6 -8,8 13 7 25 14 N 1034,9 10 0,0
24.02.2018 05:00:00 -7,1 -8,3 15 8 25 14 NNE 1034,0 10 0,0
24.02.2018 04:00:00 -7,4 -8,5 13 7 18 10 NNE 1033,6 10 0,0
24.02.2018 03:00:00 -7,4 -8,3 13 7 18 10 N 1033,2 10 0,0
24.02.2018 02:00:00 -6,3 -7,7 13 7 18 10 NNE 1032,7 10 0,0
24.02.2018 01:00:00 -5,4 -7,2 13 7 22 12 NNE 1032,1 10 0,0
24.02.2018 00:00:00 -3,8 -5,9 15 8 25 14 NNE 1031,6 10 0,0
23.02.2018 23:00:00 -3,4 -5,7 18 10 29 16 NNE 1031,1 10 0,0
23.02.2018 22:00:00 -2,8 -5,1 18 10 29 16 NNE 1030,8 10 0,0
23.02.2018 21:00:00 -2,6 -4,6 15 8 22 12 NNE 1030,2 10 0,0
23.02.2018 20:00:00 -2,3 -3,9 11 6 14 8 N 1029,6 10 0,0
23.02.2018 19:00:00 -2,4 -4,1 9 5 18 10 N 1029,1 10 0,0
23.02.2018 18:00:00 -2,4 -4,3 11 6 25 14 N 1028,7 10 0,0
23.02.2018 17:00:00 -2,3 -4,6 13 7 25 14 N 1028,2 10 0,0
23.02.2018 16:00:00 -2,4 -4,9 15 8 25 14 N 1027,9 10 0,0
23.02.2018 15:00:00 -2,0 -4,3 15 8 25 14 NW 1027,7 10 0,0
23.02.2018 14:00:00 -1,3 -4,0 15 8 22 12 WNW 1027,6 10 0,0
23.02.2018 13:00:00 -1,2 -4,0 13 7 25 14 W 1027,7 10 0,0
23.02.2018 12:00:00 -1,8 -4,5 15 8 22 12 W 1028,1 10 0,0
23.02.2018 11:00:00 -2,4 -4,7 11 6 14 8 W 1028,3 10 0,0
23.02.2018 10:00:00 -3,7 -5,7 8 4 11 6 WNW 1028,7 10 0,0
23.02.2018 09:00:00 -5,6 -6,8 4 2 7 4 - 1028,8 10 0,0
23.02.2018 08:00:00 -8,1 -8,5 2 1 4 2 WNW 1029,1 10 0,0
23.02.2018 07:00:00 -7,7 -8,2 4 2 4 2 WNW 1028,8 10 0,0
23.02.2018 06:00:00 -7,0 -8,0 2 1 - - NW - 10 -
23.02.2018 05:00:00 -7,1 -7,8 5 3 7 4 N 1028,7 10 0,0
23.02.2018 04:00:00 -8,0 -8,5 5 3 7 4 NNE 1028,8 10 0,0
23.02.2018 03:00:00 -6,3 -7,0 0 0 4 2 N 1028,9 10 0,0
23.02.2018 02:00:00 -5,1 -6,3 4 2 4 2 N 1029,4 10 0,0
23.02.2018 01:00:00 -4,6 -6,1 4 2 4 2 N 1029,6 10 0,0
23.02.2018 00:00:00 -4,8 -6,0 2 1 4 2 NNE 1029,9 10 0,0
22.02.2018 23:00:00 -4,9 -6,4 4 2 7 4 ESE 1030,0 10 0,0
22.02.2018 22:00:00 -5,5 -6,6 4 2 7 4 ENE 1030,3 10 0,0
22.02.2018 21:00:00 -6,9 -7,8 5 3 7 4 NNE 1030,1 10 0,0
22.02.2018 20:00:00 -5,8 -7,5 5 3 7 4 SE 1030,1 10 0,0
22.02.2018 19:00:00 -3,7 -6,8 5 3 7 4 E 1030,0 10 0,0
22.02.2018 18:00:00 -2,6 -6,6 4 2 14 8 S 1029,7 10 0,0
22.02.2018 17:00:00 -1,9 -6,5 8 4 14 8 SSE 1029,5 10 0,0
22.02.2018 16:00:00 -1,3 -6,1 11 6 18 10 S 1029,4 10 0,0
22.02.2018 15:00:00 -0,7 -5,7 11 6 18 10 SE 1029,6 10 0,0
22.02.2018 14:00:00 -1,0 -5,2 9 5 18 10 SE 1029,9 10 0,0
22.02.2018 13:00:00 -1,0 -4,5 11 6 18 10 ESE 1030,1 10 0,0
22.02.2018 12:00:00 -1,9 -3,6 13 7 18 10 E 1030,0 10 0,0
22.02.2018 11:00:00 -2,1 -3,7 11 6 14 8 E 1029,9 5 0,0
22.02.2018 10:00:00 -3,6 -4,9 11 6 18 10 NE 1029,9 10 0,0
22.02.2018 09:00:00 -4,8 -5,8 13 7 18 10 NNE 1029,6 10 0,0
22.02.2018 08:00:00 -5,1 -6,1 15 8 22 12 NNE 1029,4 10 0,0
22.02.2018 07:00:00 -8,0 -9,1 11 6 14 8 NNE 1029,2 40 0,0
22.02.2018 06:00:00 - - - - - - - - - -
22.02.2018 05:00:00 -8,1 -9,4 11 6 14 8 N 1028,9 10 0,0
22.02.2018 04:00:00 -8,1 -9,2 11 6 14 8 N 1029,1 10 0,0
22.02.2018 03:00:00 -8,3 -9,2 9 5 14 8 N 1029,0 10 0,0
22.02.2018 02:00:00 -7,6 -8,0 8 4 11 6 NNE 1028,9 10 0,0
22.02.2018 01:00:00 -6,3 -7,0 8 4 14 8 N 1028,9 10 0,0
22.02.2018 00:00:00 -5,6 -6,7 13 7 25 14 NNE 1028,8 10 0,0
21.02.2018 23:00:00 -4,0 -5,0 18 10 29 16 NE 1028,6 10 0,0
21.02.2018 22:00:00 -2,8 -3,8 16 9 25 14 NE 1028,1 10 0,0
21.02.2018 21:00:00 -2,2 -2,9 15 8 25 14 NE 1027,8 10 0,0
21.02.2018 20:00:00 -2,1 -2,4 5 3 7 4 NNE 1027,2 10 0,0
21.02.2018 19:00:00 -1,8 -2,4 5 3 22 12 NNE 1026,8 10 0,1
21.02.2018 18:00:00 -1,0 -1,3 4 2 7 4 - 1026,3 10 0,0
21.02.2018 17:00:00 -0,9 -1,2 5 3 7 4 S 1026,2 6 0,0
21.02.2018 16:00:00 -0,9 -1,3 5 3 7 4 S 1026,2 6 0,1
21.02.2018 15:00:00 -0,8 -1,6 5 3 7 4 S 1026,3 9 0,0
21.02.2018 14:00:00 -0,8 -1,9 4 2 7 4 - 1026,7 10 0,0
21.02.2018 13:00:00 -1,5 -2,3 4 2 7 4 - 1027,2 10 0,0
21.02.2018 12:00:00 -2,0 -3,0 4 2 7 4 - 1027,3 10 0,0
21.02.2018 11:00:00 -2,3 -3,1 2 1 7 4 - 1027,4 5 0,2
21.02.2018 10:00:00 -2,7 -3,5 5 3 7 4 S 1027,4 8 0,0
21.02.2018 09:00:00 -2,9 -3,7 0 0 4 2 N 1027,1 5 0,4
21.02.2018 08:00:00 -3,2 -3,9 0 0 4 2 N 1027,1 1,0 0,4
21.02.2018 07:00:00 -3,0 -4,1 2 1 4 2 N 1027,1 5 0,0
21.02.2018 06:00:00 -3,0 -4,3 2 1 4 2 NW 1027,3 10 0,0
21.02.2018 05:00:00 -2,9 -4,3 4 2 7 4 N 1027,5 10 0,0
21.02.2018 04:00:00 -2,9 -4,3 4 2 11 6 - 1027,6 10 0,0
21.02.2018 03:00:00 -2,7 -4,3 9 5 11 6 NE 1027,5 10 0,0
21.02.2018 02:00:00 -2,6 -4,2 8 4 18 10 NNE 1027,9 10 0,0
21.02.2018 01:00:00 -2,3 -3,9 15 8 22 12 NE 1028,0 10 0,0
21.02.2018 00:00:00 -2,0 -3,1 11 6 18 10 NE 1028,0 10 0,0
20.02.2018 23:00:00 -1,8 -2,8 5 3 11 6 NNE 1027,9 10 0,0
20.02.2018 22:00:00 -1,6 -2,7 8 4 11 6 NE 1027,8 10 0,0
20.02.2018 21:00:00 -1,4 -2,4 8 4 14 8 NE 1027,8 10 0,0
20.02.2018 20:00:00 -1,3 -2,1 5 3 14 8 NE 1027,7 10 0,0
20.02.2018 19:00:00 -1,1 -2,5 9 5 18 10 ENE 1027,3 10 0,0
20.02.2018 18:00:00 -0,9 -2,5 11 6 18 10 ENE 1027,0 10 0,0
20.02.2018 17:00:00 -0,6 -1,9 13 7 18 10 ENE 1026,6 10 0,0
20.02.2018 16:00:00 -0,3 -1,7 15 8 22 12 ENE 1026,4 10 0,0
20.02.2018 15:00:00 -0,1 -1,8 16 9 25 14 ENE 1026,4 10 0,0
20.02.2018 14:00:00 0,1 -1,7 16 9 25 14 E 1026,4 10 0,0
20.02.2018 13:00:00 0,3 -1,3 16 9 29 16 ENE 1026,3 10 -
20.02.2018 12:00:00 0,1 -0,8 16 9 25 14 ENE 1026,4 10 0,0
20.02.2018 11:00:00 0,0 -0,7 15 8 22 12 NE 1026,2 10 0,0
20.02.2018 10:00:00 -0,2 -0,6 15 8 22 12 ENE 1025,9 10 0,0
20.02.2018 09:00:00 -0,5 -0,8 13 7 22 12 NE 1025,6 10 0,0
20.02.2018 08:00:00 -0,5 -0,6 11 6 18 10 ENE 1025,4 10 0,0
20.02.2018 07:00:00 -0,3 -0,3 8 4 14 8 ENE 1025,1 6 0,0
20.02.2018 06:00:00 -0,7 -0,8 8 4 14 8 NE 1025,0 2,4 0,0
20.02.2018 05:00:00 -1,5 -1,6 8 4 11 6 NNE 1025,0 0,2 0,0
20.02.2018 04:00:00 -2,3 -2,4 9 5 14 8 N 1025,0 0,3 0,0
20.02.2018 03:00:00 -2,5 -2,6 13 7 14 8 NNE 1025,1 3,6 0,0
20.02.2018 02:00:00 -2,9 -3,0 9 5 11 6 NNE 1025,0 2,7 0,0
20.02.2018 01:00:00 -2,5 -2,6 9 5 14 8 NNE 1024,8 0,7 0,0
20.02.2018 00:00:00 -3,7 -4,0 8 4 11 6 NNE 1024,6 2,8 0,0
19.02.2018 23:00:00 -3,3 -3,6 9 5 11 6 NNE 1024,5 6 0,0
19.02.2018 22:00:00 -3,6 -3,7 9 5 11 6 NNE 1024,2 7 0,0
19.02.2018 21:00:00 -2,8 -3,1 4 2 7 4 NE 1024,0 10 0,0
19.02.2018 20:00:00 0,1 -0,8 5 3 7 4 ESE 1023,8 10 0,0
19.02.2018 19:00:00 0,8 -0,2 5 3 7 4 ESE 1023,5 10 0,0
19.02.2018 18:00:00 1,1 0,2 5 3 7 4 ESE 1023,2 10 0,0
19.02.2018 17:00:00 1,8 0,0 4 2 11 6 SE 1022,7 10 0,0
19.02.2018 16:00:00 2,1 0,3 9 5 14 8 S 1022,4 10 0,0
19.02.2018 15:00:00 2,2 0,4 9 5 14 8 S 1022,2 10 0,0
19.02.2018 14:00:00 2,5 0,6 11 6 18 10 SSW 1022,0 10 0,0
19.02.2018 13:00:00 2,4 0,5 11 6 14 8 S 1021,9 10 0,0
19.02.2018 12:00:00 2,4 0,9 5 3 11 6 SSW 1022,2 10 0,0
19.02.2018 11:00:00 1,8 0,8 5 3 14 8 SSW 1022,1 9 0,0
19.02.2018 10:00:00 1,5 0,6 5 3 11 6 S 1022,0 9 0,0
19.02.2018 09:00:00 -0,9 -1,0 4 2 4 2 SSE 1022,0 8 0,0
19.02.2018 08:00:00 -1,1 -1,3 2 1 7 4 SE 1021,9 8 0,0
19.02.2018 07:00:00 -0,3 -0,4 4 2 4 2 S 1021,8 8 0,0
19.02.2018 06:00:00 -0,3 -0,6 4 2 7 4 S 1021,8 7 0,0
19.02.2018 05:00:00 -0,1 -0,5 4 2 7 4 SSW 1022,0 10 0,0
19.02.2018 04:00:00 0,2 -0,7 5 3 7 4 SSW 1022,4 10 0,0
19.02.2018 03:00:00 0,2 -0,9 5 3 11 6 SSW 1022,8 10 0,0
19.02.2018 02:00:00 0,2 -0,9 5 3 11 6 SSW 1023,5 10 0,0
19.02.2018 01:00:00 0,1 -1,3 5 3 14 8 SSW 1024,0 10 0,0
19.02.2018 00:00:00 0,2 -1,2 5 3 11 6 SW 1024,2 10 0,0
18.02.2018 23:00:00 0,7 -0,8 5 3 7 4 SW 1024,6 10 0,0
18.02.2018 22:00:00 0,9 -0,7 5 3 14 8 SW 1024,8 10 0,0
18.02.2018 21:00:00 0,9 -0,4 9 5 14 8 SW 1025,0 7 0,0
18.02.2018 20:00:00 0,7 -0,9 5 3 7 4 SSW 1025,5 10 0,0
18.02.2018 19:00:00 0,7 -1,5 5 3 11 6 SW 1025,8 10 0,0
18.02.2018 18:00:00 0,5 -0,5 4 2 11 6 SSW 1026,0 10 0,0
18.02.2018 17:00:00 0,8 -0,4 2 1 4 2 S 1026,2 10 0,0
18.02.2018 16:00:00 0,9 -0,6 4 2 7 4 - 1026,4 10 0,0
18.02.2018 15:00:00 0,8 -0,5 5 3 7 4 WSW 1026,6 10 0,0
18.02.2018 14:00:00 0,5 -0,6 4 2 7 4 - 1026,8 10 0,0
18.02.2018 13:00:00 0,4 -0,7 5 3 7 4 WSW 1027,3 10 0,0

tt = Température de l'air
td = dewpoint
ff = Vitesse du vent
fx = gusts
dd = Direction du vent
ppp = reduced air pressure
vv = visibility
rr = Quantités de précipitations

stations d'obs. à proximité